WMT4PC LOWW-LROP

Flight info

Callsign WMT4PC
Flight time N/A
Altitude 35000
Route ASPI2C/29 ADAMA DCT VEDER DCT ALAMU DCT EPARI DCT TEGRI DCT NEKUL DCT LAMIT DCT TOSVI
Aircraft A20N/M-SDE2E3FGHIRWXY/LB1

Departure

Time 2026-04-24 19:33
Airport Vienna International Airport (LOWW)

Arrival

Time N/A
Airport Bucharest Henri Coandă International Airport (LROP)
Time Latitude Longitude Altitude Speed Heading
2026-04-24 18:54 48.11593 16.56635 599 ft 0 kts 206°
2026-04-24 19:26 48.11592 16.56634 599 ft 1 kts 206°
2026-04-24 19:26 48.11568 16.56617 599 ft 7 kts 206°
2026-04-24 19:26 48.11500 16.56608 599 ft 13 kts 171°
2026-04-24 19:27 48.11420 16.56627 600 ft 13 kts 127°
2026-04-24 19:27 48.11380 16.56760 601 ft 15 kts 114°
2026-04-24 19:27 48.11331 16.56901 605 ft 15 kts 116°
2026-04-24 19:27 48.11283 16.57050 606 ft 17 kts 115°
2026-04-24 19:28 48.11246 16.57164 612 ft 19 kts 117°
2026-04-24 19:28 48.11161 16.57424 603 ft 23 kts 116°
2026-04-24 19:28 48.11104 16.57599 610 ft 10 kts 115°
2026-04-24 19:28 48.11069 16.57652 603 ft 12 kts 159°
2026-04-24 19:29 48.11018 16.57627 603 ft 0 kts 206°
2026-04-24 19:32 48.11011 16.57622 603 ft 4 kts 206°
2026-04-24 19:32 48.10956 16.57582 609 ft 13 kts 206°
2026-04-24 19:32 48.10932 16.57474 615 ft 7 kts 296°
2026-04-24 19:32 48.10933 16.57471 614 ft 0 kts 296°
2026-04-24 19:33 48.10934 16.57469 613 ft 2 kts 296°
2026-04-24 19:33 48.11029 16.57181 615 ft 75 kts 296°
2026-04-24 19:33 48.11376 16.56121 601 ft 151 kts 296°
2026-04-24 19:33 48.11894 16.54601 1230 ft 165 kts 297°
2026-04-24 19:34 48.12282 16.52971 2198 ft 168 kts 279°
2026-04-24 19:34 48.12088 16.51263 3073 ft 174 kts 247°
2026-04-24 19:34 48.11212 16.49991 3944 ft 183 kts 214°
2026-04-24 19:34 48.10073 16.49088 4835 ft 184 kts 213°
2026-04-24 19:35 48.08918 16.48193 5540 ft 194 kts 214°
2026-04-24 19:35 48.07618 16.47430 6201 ft 212 kts 196°
2026-04-24 19:35 48.06044 16.47453 6801 ft 236 kts 176°
2026-04-24 19:35 48.04353 16.47802 7297 ft 261 kts 175°
2026-04-24 19:36 48.02445 16.48184 7705 ft 288 kts 175°
2026-04-24 19:36 48.00424 16.48575 8216 ft 299 kts 175°
2026-04-24 19:36 47.98321 16.48923 8854 ft 303 kts 182°
2026-04-24 19:36 47.96255 16.48510 9510 ft 302 kts 201°
2026-04-24 19:37 47.94363 16.47218 10175 ft 302 kts 212°
2026-04-24 19:37 47.92485 16.45732 10856 ft 309 kts 212°
2026-04-24 19:37 47.90536 16.44198 11368 ft 328 kts 210°
2026-04-24 19:37 47.88313 16.43058 11872 ft 351 kts 192°
2026-04-24 19:38 47.85823 16.43044 12382 ft 371 kts 171°
2026-04-24 19:38 47.83256 16.44001 12906 ft 384 kts 165°
2026-04-24 19:38 47.80675 16.45055 13499 ft 388 kts 165°
2026-04-24 19:38 47.78072 16.46116 14122 ft 391 kts 165°
2026-04-24 19:39 47.75411 16.47186 14714 ft 395 kts 165°
2026-04-24 19:39 47.72768 16.48236 15317 ft 398 kts 165°
2026-04-24 19:39 47.70063 16.49304 15923 ft 401 kts 165°
2026-04-24 19:39 47.67385 16.50450 16540 ft 404 kts 158°
2026-04-24 19:40 47.64940 16.52494 17179 ft 407 kts 141°
2026-04-24 19:40 47.62984 16.55490 17830 ft 408 kts 123°
2026-04-24 19:40 47.61659 16.59221 18488 ft 407 kts 108°
2026-04-24 19:40 47.60816 16.63229 19064 ft 410 kts 103°
2026-04-24 19:41 47.60010 16.67293 19656 ft 414 kts 105°
2026-04-24 19:41 47.59099 16.71359 20261 ft 418 kts 107°
2026-04-24 19:41 47.58080 16.75424 20883 ft 422 kts 109°
2026-04-24 19:41 47.56994 16.79486 21515 ft 425 kts 110°
2026-04-24 19:42 47.55874 16.83556 22159 ft 428 kts 110°
2026-04-24 19:42 47.54736 16.87640 22822 ft 430 kts 110°
2026-04-24 19:42 47.53588 16.91748 23501 ft 432 kts 111°
2026-04-24 19:42 47.52436 16.95863 24089 ft 433 kts 111°
2026-04-24 19:43 47.51296 16.99930 24665 ft 434 kts 111°
2026-04-24 19:43 47.50138 17.04060 25202 ft 436 kts 111°
2026-04-24 19:43 47.48971 17.08219 25685 ft 439 kts 110°
2026-04-24 19:43 47.47793 17.12408 26181 ft 442 kts 110°
2026-04-24 19:44 47.46608 17.16613 26681 ft 444 kts 110°
2026-04-24 19:44 47.45418 17.20827 27189 ft 445 kts 110°
2026-04-24 19:44 47.44223 17.25055 27711 ft 446 kts 110°
2026-04-24 19:44 47.43024 17.29285 28254 ft 446 kts 110°
2026-04-24 19:45 47.41822 17.33522 28780 ft 446 kts 110°
2026-04-24 19:45 47.40623 17.37737 29337 ft 445 kts 110°
2026-04-24 19:45 47.39438 17.41899 29894 ft 444 kts 110°
2026-04-24 19:45 47.38241 17.46096 30402 ft 443 kts 110°
2026-04-24 19:46 47.37045 17.50280 30888 ft 441 kts 110°
2026-04-24 19:46 47.35852 17.54445 31382 ft 439 kts 110°
2026-04-24 19:46 47.34667 17.58577 31888 ft 437 kts 110°
2026-04-24 19:46 47.33482 17.62699 32403 ft 435 kts 109°
2026-04-24 19:47 47.32307 17.66783 32929 ft 432 kts 109°
2026-04-24 19:47 47.31135 17.70845 33462 ft 429 kts 109°
2026-04-24 19:47 47.29972 17.74875 34004 ft 425 kts 109°
2026-04-24 19:47 47.28820 17.78855 34484 ft 420 kts 109°
2026-04-24 19:48 47.27677 17.82803 34882 ft 418 kts 109°
2026-04-24 19:48 47.26531 17.86765 35002 ft 424 kts 109°
2026-04-24 19:48 47.24173 17.94903 35032 ft 440 kts 109°
2026-04-24 19:49 47.21717 18.03334 35023 ft 455 kts 109°
2026-04-24 19:49 47.19196 18.11941 35021 ft 462 kts 109°
2026-04-24 19:50 47.14098 18.29258 35019 ft 461 kts 109°
2026-04-24 19:51 47.10262 18.42218 35018 ft 461 kts 109°
2026-04-24 19:52 47.06423 18.55127 35018 ft 462 kts 109°
2026-04-24 19:52 47.03841 18.63772 35020 ft 462 kts 109°
2026-04-24 19:53 47.01251 18.72412 35019 ft 463 kts 109°
2026-04-24 19:54 46.97349 18.85369 35018 ft 463 kts 109°
2026-04-24 19:54 46.94740 18.93996 35014 ft 463 kts 109°
2026-04-24 19:55 46.92567 19.01161 35018 ft 463 kts 109°